Louisa, VA

7:20 AM EST on December 04, 2016 (GMT -0500)
Louisa County-Freeman

Weather History for KLKU - December, 2012

Change the Weather History Date:

Sunday, December 9, 2012

  Actual Average (KCHO) Record (KCHO)
Temperature  
Mean Temperature 52 °F 39 °F  
Max Temperature 55 °F 48 °F 76 °F (1980)
Min Temperature 48 °F 30 °F 11 °F (1917)
Degree Days  
Heating Degree Days 14 26  
Month to date heating degree days 222  
Since 1 July heating degree days 1113  
Cooling Degree Days 0 0  
Month to date cooling degree days 0  
Year to date cooling degree days 1035  
Growing Degree Days 2 (Base 50)    
Moisture  
Dew Point 50 °F    
Average Humidity 92    
Maximum Humidity 100    
Minimum Humidity 88    
Precipitation  
Precipitation 0.03 in 0.12 in 1.04 in (2009)
Month to date precipitation 1.09  
Year to date precipitation 40.65  
Sea Level Pressure  
Sea Level Pressure 30.06 in    
Wind  
Wind Speed 2 mph (NE)    
Max Wind Speed 9 mph    
Max Gust Speed -    
Visibility 3 miles    
Events Fog , Rain    
T = Trace of Precipitation, MM = Missing Value Source: NWS Daily Summary

Daily Weather History Graph

Daily Weather History Graph

Search for Another Location

Airport or City:

Trip Planner

Search our weather history database for the weather conditions in past years. The results will help you decide how hot, cold, wet, or windy it might be!

Date:

Astronomy

Dec. 09, 2012 Rise Set
Actual Time 7:16 AM EST 4:52 PM EST
Civil Twilight 6:47 AM EST 5:21 PM EST
Nautical Twilight 6:14 AM EST 5:54 PM EST
Astronomical Twilight 5:42 AM EST 6:26 PM EST
Moon 2:50 AM EST (12/9) 1:55 PM EST (12/9)
Length of Visible Light 10h 34m
Length of Day
9h 35m
Waning Crescent, 19% of the Moon is Illuminated
Dec 9
Waning Crescent
Dec 13
New
Dec 20
First Quarter
Dec 28
Full
Jan 4
Last Quarter

Hourly Weather History & Observations

Time (EST) Temp. Dew Point Humidity Pressure Visibility Wind Dir Wind Speed Gust Speed Precip Events Conditions
12:15 AM 55.4 °F 51.8 °F 88% 29.99 in 10.0 mi Calm Calm - N/A   Overcast
12:35 AM 53.6 °F 50.0 °F 88% 30.00 in 10.0 mi SW 3.5 mph - N/A   Overcast
12:55 AM 53.6 °F 50.0 °F 88% 30.00 in 10.0 mi SW 3.5 mph - N/A   Mostly Cloudy
1:15 AM 51.8 °F 48.2 °F 88% 30.01 in 5.0 mi Calm Calm - N/A   Mostly Cloudy
1:35 AM 51.8 °F 50.0 °F 94% 30.01 in 5.0 mi Calm Calm - N/A   Mostly Cloudy
1:55 AM 53.6 °F 50.0 °F 88% 30.01 in 7.0 mi WSW 3.5 mph - N/A   Mostly Cloudy
2:15 AM 53.6 °F 50.0 °F 88% 30.02 in 7.0 mi Calm Calm - N/A   Overcast
2:35 AM 51.8 °F 50.0 °F 94% 30.04 in 7.0 mi North 4.6 mph - N/A   Overcast
2:55 AM 51.8 °F 50.0 °F 94% 30.04 in 5.0 mi NNE 4.6 mph - N/A   Overcast
3:15 AM 51.8 °F 50.0 °F 94% 30.04 in 5.0 mi NE 3.5 mph - N/A   Overcast
3:35 AM 53.6 °F 50.0 °F 88% 30.03 in 7.0 mi Calm Calm - N/A   Overcast
3:55 AM 51.8 °F 50.0 °F 94% 30.03 in 5.0 mi Calm Calm - N/A   Overcast
4:15 AM 51.8 °F 50.0 °F 94% 30.03 in 5.0 mi Calm Calm - N/A   Mostly Cloudy
4:35 AM 50.0 °F 48.2 °F 94% 30.03 in 1.0 mi Calm Calm - N/A   Mostly Cloudy
4:55 AM 48.2 °F 46.4 °F 93% 30.03 in 0.2 mi Calm Calm - N/A Fog Fog
5:15 AM 48.2 °F 46.4 °F 93% 30.05 in 0.8 mi Calm Calm - N/A   Overcast
5:35 AM 48.2 °F 46.4 °F 93% 30.07 in 1.0 mi Calm Calm - N/A   Overcast
5:55 AM 50.0 °F 48.2 °F 94% 30.08 in 2.5 mi Calm Calm - N/A   Scattered Clouds
6:15 AM 48.2 °F 48.2 °F 100% 30.09 in 0.5 mi Calm Calm - N/A Fog Fog
6:35 AM 48.2 °F 48.2 °F 100% 30.09 in 1.5 mi North 5.8 mph - N/A   Overcast
6:55 AM 50.0 °F 48.2 °F 94% 30.09 in 1.5 mi North 6.9 mph - N/A   Overcast
7:15 AM 51.8 °F 48.2 °F 88% 30.09 in 5.0 mi North 5.8 mph - N/A   Scattered Clouds
7:35 AM 51.8 °F 50.0 °F 94% 30.10 in 4.0 mi North 6.9 mph - N/A   Clear
7:55 AM 51.8 °F 50.0 °F 94% 30.10 in 3.0 mi NNE 5.8 mph - N/A   Clear
8:15 AM 51.8 °F 50.0 °F 94% 30.10 in 2.5 mi NNE 6.9 mph - N/A   Scattered Clouds
8:35 AM 51.8 °F 50.0 °F 94% 30.11 in 2.5 mi NNE 3.5 mph - N/A   Mostly Cloudy
8:55 AM 51.8 °F 50.0 °F 94% 30.12 in 2.5 mi NNE 3.5 mph - N/A   Mostly Cloudy
9:15 AM 53.6 °F 50.0 °F 88% 30.13 in 3.0 mi NE 5.8 mph - N/A   Overcast
9:35 AM 53.6 °F 50.0 °F 88% 30.15 in 4.0 mi ENE 4.6 mph - N/A   Overcast
9:55 AM 53.6 °F 50.0 °F 88% 30.15 in 4.0 mi NNE 8.1 mph - N/A   Overcast
10:15 AM 53.6 °F 50.0 °F 88% 30.13 in 4.0 mi ENE 9.2 mph - N/A   Overcast
10:35 AM 53.6 °F 51.8 °F 94% 30.12 in 3.0 mi ENE 6.9 mph - N/A   Overcast
10:55 AM 53.6 °F 50.0 °F 88% 30.12 in 3.0 mi NE 5.8 mph - N/A   Overcast
11:35 AM 53.6 °F 50.0 °F 88% 30.12 in 2.5 mi NE 3.5 mph - N/A   Overcast
11:55 AM 53.6 °F 51.8 °F 94% 30.11 in 2.0 mi NE 6.9 mph - N/A   Overcast
12:15 PM 53.6 °F 51.8 °F 94% 30.11 in 1.5 mi NE 5.8 mph - N/A   Overcast
12:35 PM 53.6 °F 51.8 °F 94% 30.10 in 1.2 mi NE 4.6 mph - N/A   Overcast
12:55 PM 53.6 °F 51.8 °F 94% 30.09 in 1.5 mi ENE 5.8 mph - N/A   Overcast
1:15 PM 53.6 °F 51.8 °F 94% 30.09 in 1.5 mi ENE 4.6 mph - N/A   Overcast
1:35 PM 53.6 °F 50.0 °F 88% 30.09 in 1.2 mi East 3.5 mph - N/A   Overcast
1:55 PM 53.6 °F 51.8 °F 94% 30.08 in 1.5 mi ENE 4.6 mph - N/A   Overcast
2:15 PM 53.6 °F 50.0 °F 88% 30.08 in 1.8 mi East 4.6 mph - N/A   Overcast
2:35 PM 53.6 °F 50.0 °F 88% 30.08 in 2.5 mi East 3.5 mph - N/A   Overcast
2:55 PM 51.8 °F 50.0 °F 94% 30.07 in 2.0 mi ENE 3.5 mph - N/A   Overcast
3:15 PM 53.6 °F 50.0 °F 88% 30.07 in 2.0 mi ENE 3.5 mph - N/A   Overcast
3:35 PM 53.6 °F 50.0 °F 88% 30.07 in 2.5 mi NE 5.8 mph - N/A   Overcast
3:55 PM 53.6 °F 50.0 °F 88% 30.07 in 2.0 mi ENE 5.8 mph - N/A   Overcast
4:15 PM 51.8 °F 50.0 °F 94% 30.08 in 2.0 mi Calm Calm - N/A   Overcast
4:35 PM 51.8 °F 50.0 °F 94% 30.08 in 1.8 mi Calm Calm - N/A   Overcast
4:55 PM 51.8 °F 50.0 °F 94% 30.07 in 1.8 mi Calm Calm - N/A   Overcast
5:15 PM 51.8 °F 50.0 °F 94% 30.07 in 1.8 mi Calm Calm - N/A Rain Rain
5:35 PM 51.8 °F 50.0 °F 94% 30.07 in 2.0 mi Calm Calm - 0.01 in Rain Heavy Rain
5:55 PM 51.8 °F 50.0 °F 94% 30.07 in 2.5 mi Calm Calm - 0.01 in   Overcast
6:15 PM 51.8 °F 50.0 °F 94% 30.07 in 1.8 mi East 3.5 mph - N/A   Overcast
6:35 PM 51.8 °F 50.0 °F 94% 30.07 in 2.5 mi Calm Calm - 0.01 in Rain Light Rain
7:15 PM 51.8 °F 50.0 °F 94% 30.07 in 1.0 mi Calm Calm - N/A   Overcast
7:35 PM 51.8 °F 50.0 °F 94% 30.05 in 0.8 mi Calm Calm - N/A   Overcast
7:55 PM 51.8 °F 50.0 °F 94% 30.05 in 0.2 mi Calm Calm - N/A Fog Fog
8:15 PM 51.8 °F 50.0 °F 94% 30.04 in 0.2 mi Calm Calm - N/A Fog Fog
8:35 PM 51.8 °F 50.0 °F 94% 30.05 in 0.2 mi Calm Calm - N/A Fog Fog
8:55 PM 51.8 °F 50.0 °F 94% 30.03 in 0.2 mi Calm Calm - N/A Fog Fog
9:15 PM 51.8 °F 50.0 °F 94% 30.02 in 0.2 mi Calm Calm - N/A Fog Fog
9:35 PM 51.8 °F 50.0 °F 94% 30.02 in 0.2 mi Calm Calm - N/A Fog Fog
9:55 PM 51.8 °F 50.0 °F 94% 30.01 in 0.2 mi Calm Calm - N/A Fog Fog
10:15 PM 51.8 °F 50.0 °F 94% 30.00 in 0.2 mi Calm Calm - N/A Fog Fog
10:35 PM 51.8 °F 50.0 °F 94% 30.00 in 0.2 mi Calm Calm - N/A Rain Light Rain
10:55 PM 51.8 °F 50.0 °F 94% 30.00 in 0.2 mi Calm Calm - 0.01 in Rain Light Rain
11:15 PM 51.8 °F 48.2 °F 88% 29.99 in 0.2 mi Calm Calm - N/A Fog Fog
11:35 PM 51.8 °F 50.0 °F 94% 29.99 in 0.2 mi Calm Calm - N/A Fog Fog
11:55 PM 51.8 °F 50.0 °F 94% 29.97 in 0.2 mi Calm Calm - N/A Fog Fog